Flag for U.S.A. Weather past 2 weeks in Orlando, Florida, U.S.A.

Now
76 °F

Passing clouds.


Feels Like: 76 °F
Forecast: 77 / 90 °F
Wind: 7 mph from Southeast

Location: Orlando Executive Airport

Current Time: Aug 29, 2014 at 11:08:23 PM

Latest Report: Aug 29, 2014 at 9:53 PM


Visibility: 10 mi

Pressure: 30.12 "Hg

Humidity: 91%

Dew point: 73 °F

Location of OrlandoLocation

Historic Weather in Orlando — Graph

°F

Orlando temperature yesterday

Maximum temperature yesterday: 94 °F (at 2:53 PM)
Minimum temperature yesterday: 75 °F (at 6:53 AM)
Average temperature yesterday: 84 °F

Past Weeks' High & Low Weather Summary

 TemperatureHumidityPressure
High97 °F (Aug 22, 4:53 PM)97% (Aug 16, 4:53 AM)30.15 "Hg (Aug 16, 4:53 AM)
Low74 °F (Aug 17, 6:53 AM)43% (Aug 22, 4:53 PM)29.78 "Hg (Aug 24, 3:53 PM)
Average84 °F72%30.00 "Hg
* Reported Aug 14 9:53 PM — Aug 29 9:53 PM, Orlando, Weather by CustomWeather, © 2014

Note: Actual official high and low records may vary slightly from our data, if they occured in-between our weather recording intervals... More about our weather records

Advertising

Orlando weather history for previous 24 hours

 ConditionsComfort  
Time TempWeatherWind HumidityBarometerVisibility
9:53 PM
Aug 29
76 °FPassing clouds.7 mph91%30.12 "Hg10 mi
8:53 PM75 °FClear.3 mph94%30.11 "Hg10 mi
7:53 PM76 °FLight rain. Broken clouds.7 mph91%30.09 "Hg10 mi
6:53 PM75 °FLight rain. Broken clouds.3 mph94%30.06 "Hg10 mi
6:03 PM75 °FThundershowers. Broken clouds.7 mph94%30.07 "Hg9 mi
5:53 PM75 °FThunderstorms. Fog.7 mph90%30.08 "Hg6 mi
4:56 PM77 °FStrong thunderstorms. Fog.9 mph90%30.08 "Hg0 mi
2:53 PM87 °FThundershowers. Sunny.9 mph69%30.02 "Hg10 mi
1:53 PM80 °FHeavy rain. Mostly cloudy.8 mph79%30.05 "Hg3 mi
12:53 PM91 °FPartly sunny.9 mph57%30.05 "Hg10 mi
11:53 AM91 °FPassing clouds.7 mph60%30.06 "Hg10 mi
10:53 AM87 °FScattered clouds.7 mph69%30.07 "Hg10 mi
9:53 AM84 °FPassing clouds.No wind74%30.07 "Hg10 mi
8:53 AM82 °FSunny.5 mph79%30.07 "Hg10 mi
7:53 AM79 °FPassing clouds.6 mph84%30.05 "Hg10 mi
6:53 AM78 °FClear.6 mph87%30.03 "Hg10 mi
5:53 AM77 °FClear.6 mph90%30.01 "Hg10 mi
4:53 AM78 °FPassing clouds.3 mph90%30.01 "Hg10 mi
3:53 AM78 °FPassing clouds.6 mph90%30.01 "Hg10 mi
2:53 AM79 °FPassing clouds.3 mph88%30.02 "Hg10 mi
1:53 AM80 °FPassing clouds.6 mph85%30.03 "Hg10 mi
12:53 AM80 °FClear.6 mph81%30.03 "Hg10 mi
11:53 PM
Aug 28
80 °FClear.5 mph81%30.03 "Hg10 mi
Weather by CustomWeather, © 2014

See weather overviewHow to use our weather pages